TimePST,TemperatureF,Dew PointF,Humidity,Sea Level PressureIn,VisibilityMPH,Wind Direction,Wind SpeedMPH,Gust SpeedMPH,PrecipitationIn,Events,Conditions,WindDirDegrees,DateUTC
12:58 AM,32.0,27.1,82,30.06,10.0,SSE,5.8,-,N/A,,Partly Cloudy,160,2013-02-25 08:58:00
1:58 AM,32.9,27.1,79,30.03,10.0,South,8.1,-,N/A,,Overcast,170,2013-02-25 09:58:00
2:58 AM,33.8,27.1,77,29.97,10.0,SSE,13.8,-,N/A,,Overcast,150,2013-02-25 10:58:00
3:58 AM,33.8,27.1,77,29.96,10.0,South,13.8,-,N/A,,Overcast,170,2013-02-25 11:58:00
4:12 AM,32.0,26.6,80,29.90,10.0,South,11.5,-,N/A,,Overcast,170,2013-02-25 12:12:00
4:20 AM,33.8,26.6,75,29.89,10.0,South,10.4,-,N/A,,Overcast,170,2013-02-25 12:20:00
4:21 AM,32.0,26.6,80,29.89,10.0,South,10.4,-,N/A,,Overcast,180,2013-02-25 12:21:00
4:22 AM,32.0,26.6,80,29.89,10.0,South,10.4,-,N/A,,Overcast,180,2013-02-25 12:22:00
4:58 AM,32.0,30.7,95,29.95,4.0,South,10.4,-,0.00,Snow,Light Snow,180,2013-02-25 12:58:00
4:59 AM,32.0,32.0,100,29.88,4.0,South,10.4,-,N/A,Snow,Light Snow,180,2013-02-25 12:59:00
5:07 AM,32.0,32.0,100,29.87,4.0,South,11.5,-,N/A,Snow,Light Snow,180,2013-02-25 13:07:00
5:21 AM,32.0,32.0,100,29.87,4.0,South,10.4,-,N/A,Snow,Light Snow,180,2013-02-25 13:21:00
5:48 AM,32.0,32.0,100,29.87,4.0,South,11.5,-,N/A,Snow,Light Snow,180,2013-02-25 13:48:00
5:57 AM,32.0,32.0,100,29.86,2.5,South,10.4,-,N/A,Snow,Light Snow,190,2013-02-25 13:57:00
5:58 AM,32.0,32.0,100,29.93,2.5,South,10.4,-,0.01,Snow,Light Snow,190,2013-02-25 13:58:00
6:09 AM,32.0,32.0,100,29.86,2.5,South,10.4,-,N/A,Snow,Light Snow,190,2013-02-25 14:09:00
6:13 AM,32.0,32.0,100,29.86,2.5,South,10.4,-,N/A,Snow,Light Snow,190,2013-02-25 14:13:00
6:15 AM,32.0,32.0,100,29.86,2.5,South,11.5,-,N/A,Snow,Light Snow,190,2013-02-25 14:15:00
6:33 AM,32.0,32.0,100,29.86,1.8,South,11.5,-,N/A,Snow,Light Snow,190,2013-02-25 14:33:00
6:35 AM,32.0,32.0,100,29.85,1.5,South,12.7,-,N/A,Snow,Light Snow,180,2013-02-25 14:35:00
6:39 AM,32.0,32.0,100,29.86,1.2,South,12.7,-,N/A,Snow,Light Snow,180,2013-02-25 14:39:00
6:45 AM,32.0,32.0,100,29.86,1.0,South,12.7,-,N/A,Snow,Light Snow,180,2013-02-25 14:45:00
6:54 AM,32.0,32.0,100,29.85,1.2,South,12.7,-,N/A,Snow,Light Snow,180,2013-02-25 14:54:00
6:57 AM,32.0,32.0,100,29.85,1.0,South,15.0,-,N/A,Snow,Light Snow,190,2013-02-25 14:57:00
6:58 AM,32.0,32.0,100,29.92,1.0,South,15.0,-,0.03,Snow,Light Snow,180,2013-02-25 14:58:00
7:03 AM,32.0,32.0,100,29.85,0.8,South,13.8,-,N/A,Snow,Light Snow,180,2013-02-25 15:03:00
7:07 AM,32.0,32.0,100,29.85,1.0,South,15.0,-,N/A,Snow,Light Snow,190,2013-02-25 15:07:00
7:09 AM,32.0,32.0,100,29.85,1.0,South,15.0,-,N/A,Snow,Light Snow,190,2013-02-25 15:09:00
7:13 AM,32.0,32.0,100,29.85,1.2,South,15.0,-,N/A,Snow,Light Snow,190,2013-02-25 15:13:00
7:23 AM,32.0,32.0,100,29.85,1.2,South,15.0,-,N/A,Snow,Light Snow,180,2013-02-25 15:23:00
7:27 AM,32.0,32.0,100,29.85,1.5,South,15.0,-,N/A,Snow,Light Snow,190,2013-02-25 15:27:00
7:30 AM,32.0,32.0,100,29.85,1.8,South,16.1,-,N/A,Snow,Light Snow,190,2013-02-25 15:30:00
7:34 AM,32.0,32.0,100,29.85,2.0,South,15.0,-,N/A,Snow,Light Snow,190,2013-02-25 15:34:00
7:39 AM,32.0,32.0,100,29.85,2.0,South,13.8,-,N/A,Snow,Light Snow,190,2013-02-25 15:39:00
7:45 AM,32.0,32.0,100,29.85,2.0,South,12.7,-,N/A,Snow,Light Snow,190,2013-02-25 15:45:00
7:47 AM,32.0,32.0,100,29.85,2.5,South,15.0,-,N/A,Snow,Light Snow,190,2013-02-25 15:47:00
7:48 AM,32.0,32.0,100,29.85,3.0,South,13.8,-,N/A,Snow,Light Snow,190,2013-02-25 15:48:00
7:58 AM,31.6,30.9,97,29.92,7.0,SSW,16.1,23.0,0.01,,Overcast,200,2013-02-25 15:58:00
8:04 AM,32.0,32.0,100,29.85,6.0,SSW,15.0,24.2,N/A,Snow,Light Snow,200,2013-02-25 16:04:00
8:36 AM,32.0,32.0,100,29.84,2.5,SSW,17.3,26.5,N/A,Snow,Light Snow,200,2013-02-25 16:36:00
8:47 AM,32.0,32.0,100,29.84,2.5,South,23.0,34.5,N/A,Snow,Light Snow,190,2013-02-25 16:47:00
8:48 AM,32.0,32.0,100,29.85,2.5,South,21.9,34.5,N/A,Snow,Light Snow,190,2013-02-25 16:48:00
8:50 AM,32.0,32.0,100,29.85,3.0,SSW,21.9,34.5,N/A,Snow,Light Snow,200,2013-02-25 16:50:00
8:58 AM,32.7,32.0,97,29.92,6.0,SSW,19.6,27.6,0.00,Snow,Light Snow,210,2013-02-25 16:58:00
9:06 AM,32.0,32.0,100,29.85,10.0,SSW,18.4,29.9,N/A,Snow,Light Snow,210,2013-02-25 17:06:00
9:17 AM,32.0,32.0,100,29.85,10.0,SSW,18.4,-,N/A,Snow,Light Snow,200,2013-02-25 17:17:00
9:39 AM,32.0,32.0,100,29.86,10.0,SW,16.1,-,N/A,Snow,Light Snow,220,2013-02-25 17:39:00
9:50 AM,32.0,32.0,100,29.86,10.0,SSW,16.1,24.2,N/A,,Overcast,210,2013-02-25 17:50:00
9:52 AM,32.0,32.0,100,29.85,10.0,SW,17.3,24.2,N/A,Snow,Light Snow,220,2013-02-25 17:52:00
9:58 AM,33.4,32.7,97,29.92,10.0,SW,19.6,-,0.00,,Overcast,220,2013-02-25 17:58:00
10:02 AM,32.0,32.0,100,29.86,10.0,SW,17.3,23.0,N/A,Snow,Light Snow,220,2013-02-25 18:02:00
10:37 AM,33.8,32.0,93,29.86,10.0,SSW,16.1,-,N/A,Snow,Light Snow,210,2013-02-25 18:37:00
10:58 AM,34.5,32.2,91,29.93,10.0,SW,20.7,25.3,0.00,Snow,Light Snow,220,2013-02-25 18:58:00
11:14 AM,35.6,32.0,87,29.86,10.0,SW,13.8,26.5,N/A,Snow,Light Snow,220,2013-02-25 19:14:00
11:15 AM,35.6,32.0,87,29.87,10.0,SW,16.1,26.5,N/A,Snow,Light Snow,220,2013-02-25 19:15:00
11:19 AM,35.6,32.0,87,29.87,10.0,SW,19.6,26.5,N/A,Snow,Light Snow,220,2013-02-25 19:19:00
11:22 AM,35.6,32.0,87,29.87,10.0,SW,18.4,27.6,N/A,Snow,Light Snow,220,2013-02-25 19:22:00
11:23 AM,35.6,32.0,87,29.87,10.0,SW,18.4,27.6,N/A,Snow,Light Snow,220,2013-02-25 19:23:00
11:46 AM,35.6,32.0,87,29.87,10.0,SSW,17.3,24.2,N/A,Snow,Light Snow,210,2013-02-25 19:46:00
11:54 AM,35.6,32.0,87,29.87,10.0,SSW,18.4,26.5,N/A,Snow,Light Snow,210,2013-02-25 19:54:00
12:43 PM,35.6,32.0,87,29.88,10.0,SW,20.7,25.3,N/A,Snow,Light Snow,220,2013-02-25 20:43:00
12:58 PM,36.7,33.3,87,29.93,10.0,SW,15.0,27.6,0.00,Snow,Light Snow,220,2013-02-25 20:58:00
1:12 PM,37.4,32.0,81,29.87,10.0,SSW,13.8,25.3,N/A,,Scattered Clouds,210,2013-02-25 21:12:00
1:16 PM,37.4,32.0,81,29.87,10.0,SW,17.3,25.3,N/A,Snow,Light Snow,220,2013-02-25 21:16:00
1:25 PM,39.2,32.0,75,29.87,10.0,SW,18.4,21.9,N/A,,Scattered Clouds,220,2013-02-25 21:25:00
1:58 PM,39.9,31.6,72,29.93,10.0,SW,17.3,-,0.00,,Mostly Cloudy,220,2013-02-25 21:58:00
2:58 PM,39.4,29.3,67,29.94,10.0,SW,20.7,25.3,N/A,,Scattered Clouds,230,2013-02-25 22:58:00
3:58 PM,38.5,28.8,68,29.96,10.0,SW,15.0,-,N/A,,Scattered Clouds,230,2013-02-25 23:58:00
4:58 PM,36.9,29.3,74,29.97,10.0,SW,8.1,-,N/A,,Mostly Cloudy,230,2013-02-26 00:58:00
5:35 PM,37.4,26.6,65,29.92,10.0,WSW,16.1,-,N/A,,Scattered Clouds,250,2013-02-26 01:35:00
5:48 PM,35.6,24.8,65,29.92,10.0,WSW,15.0,24.2,N/A,,Mostly Cloudy,250,2013-02-26 01:48:00
5:58 PM,35.4,25.5,67,30.00,10.0,WSW,15.0,-,0.00,,Mostly Cloudy,250,2013-02-26 01:58:00
6:58 PM,33.8,27.1,77,30.03,10.0,WSW,12.7,-,N/A,,Overcast,240,2013-02-26 02:58:00
7:10 PM,32.0,26.6,80,29.96,10.0,WSW,10.4,-,N/A,,Overcast,240,2013-02-26 03:10:00
7:19 PM,32.0,26.6,80,29.96,10.0,WSW,13.8,-,N/A,,Overcast,240,2013-02-26 03:19:00
7:56 PM,32.0,26.6,80,29.97,10.0,WSW,15.0,-,N/A,,Overcast,250,2013-02-26 03:56:00
7:58 PM,33.1,26.2,76,30.04,10.0,WSW,15.0,-,0.00,,Overcast,250,2013-02-26 03:58:00
8:16 PM,32.0,26.6,80,29.98,10.0,WSW,16.1,-,N/A,,Overcast,250,2013-02-26 04:16:00
8:58 PM,31.8,25.0,76,30.06,10.0,WSW,13.8,-,0.00,,Overcast,250,2013-02-26 04:58:00
9:58 PM,30.9,24.4,77,30.09,10.0,WSW,11.5,-,N/A,,Mostly Cloudy,240,2013-02-26 05:58:00
10:41 PM,30.2,23.0,75,30.04,10.0,SW,10.4,-,N/A,,Mostly Cloudy,230,2013-02-26 06:41:00
10:54 PM,30.2,23.0,75,30.04,10.0,SW,10.4,-,N/A,,Scattered Clouds,230,2013-02-26 06:54:00
10:58 PM,30.0,22.8,75,30.11,10.0,SW,11.5,-,0.00,,Scattered Clouds,220,2013-02-26 06:58:00
11:04 PM,32.0,23.0,69,30.05,10.0,SSW,8.1,-,N/A,,Partly Cloudy,210,2013-02-26 07:04:00
11:17 PM,30.2,23.0,75,30.05,10.0,SSW,11.5,-,N/A,,Mostly Cloudy,200,2013-02-26 07:17:00
11:39 PM,30.2,23.0,75,30.06,10.0,SW,13.8,-,N/A,,Mostly Cloudy,220,2013-02-26 07:39:00
11:58 PM,29.8,23.4,77,30.14,10.0,SSW,12.7,-,0.00,,Mostly Cloudy,210,2013-02-26 07:58:00
11:59 PM,30.2,23.0,75,30.07,10.0,SSW,12.7,-,N/A,,Mostly Cloudy,210,2013-02-26 07:59:00